This is the latest recevied weather packets stored in our database for station/object W4DEX-2. If no packets are shown the sender has not sent any weather packets the latest 10 day(s).
| Time | Temp. | Humidity | Pressure | Rain* | Wind** | Luminosity | Snow |
|---|---|---|---|---|---|---|---|
| 1777766402 | 11.67° C | 55% | 1011.9 hPa | 0 mm | 4.92 m/s, 179° | - | - |
| 1777765502 | 11.67° C | 46% | 1011.7 hPa | 0 mm | 4.47 m/s, 178° | - | - |
| 1777765202 | 12.22° C | 45% | 1011.7 hPa | 0 mm | 4.47 m/s, 177° | - | - |
| 1777764302 | 12.78° C | 44% | 1011.6 hPa | 0 mm | 5.36 m/s, 177° | - | - |
| 1777764002 | 12.78° C | 42% | 1011.6 hPa | 0 mm | 4.92 m/s, 177° | - | - |
| 1777763402 | 13.33° C | 44% | 1011.5 hPa | 0 mm | 4.92 m/s, 177° | - | - |
| 1777763102 | 13.33° C | 43% | 1011.5 hPa | 0 mm | 4.92 m/s, 178° | - | - |
| 1777762803 | 13.89° C | 42% | 1011.3 hPa | 0 mm | 4.92 m/s, 178° | - | - |
| 1777762503 | 13.89° C | 41% | 1011.5 hPa | 0 mm | 4.92 m/s, 177° | - | - |
| 1777761903 | 13.89° C | 41% | 1011.7 hPa | 0 mm | 4.92 m/s, 178° | - | - |
| 1777761602 | 13.89° C | 42% | 1011.4 hPa | 0 mm | 4.92 m/s, 175° | - | - |
| 1777761002 | 13.89° C | 42% | 1011.2 hPa | 0 mm | 4.92 m/s, 175° | - | - |
| 1777760703 | 13.89° C | 44% | 1011.4 hPa | 0 mm | 4.92 m/s, 178° | - | - |
| 1777760403 | 13.89° C | 43% | 1011.6 hPa | 0 mm | 4.47 m/s, 178° | - | - |
| 1777760102 | 13.89° C | 44% | 1011.5 hPa | 0 mm | 4.47 m/s, 179° | - | - |
| 1777759802 | 13.89° C | 44% | 1011.5 hPa | 0 mm | 4.47 m/s, 176° | - | - |
| 1777759502 | 13.89° C | 41% | 1011.3 hPa | 0 mm | 4.92 m/s, 177° | - | - |
| 1777758902 | 14.44° C | 37% | 1011.3 hPa | 0 mm | 4.47 m/s, 174° | - | - |
| 1777758602 | 13.89° C | 44% | 1011.2 hPa | 0 mm | 4.92 m/s, 176° | - | - |
| 1777757702 | 13.89° C | 38% | 1011.2 hPa | 0 mm | 4.92 m/s, 187° | - | - |
| 1777757402 | 13.89° C | 39% | 1011.1 hPa | 0 mm | 5.36 m/s, 179° | - | - |
| 1777757103 | 13.89° C | 44% | 1011.3 hPa | 0 mm | 4.92 m/s, 177° | - | - |
| 1777756802 | 13.89° C | 39% | 1011.3 hPa | 0 mm | 4.92 m/s, 178° | - | - |
| 1777756502 | 13.89° C | 41% | 1011.2 hPa | 0 mm | 4.47 m/s, 176° | - | - |
| 1777756203 | 14.44° C | 38% | 1011.2 hPa | 0 mm | 4.02 m/s, 175° | - | - |
* Rain latest hour (hover to see other rain measurements)
** Current wind speed in m/s (hover to see current wind gust speed)